Overview Statistics Trail Chart Weather Telemetry Raw packets
 

This is the latest recevied weather packets stored in our database for station/object EA1HTW-13. If no packets are shown the sender has not sent any weather packets the latest 10 day(s).

<< 1 2 3 4 5 >>
Time Temp. Humidity Pressure Rain* Wind** Luminosity Snow
1777982534 16.67° C 64% 1010.2 hPa 0 mm - - -
1777981995 16.67° C 64% 1010.1 hPa 0 mm - - -
1777981454 16.67° C 64% 1010.1 hPa 0 mm - - -
1777980915 16.67° C 65% 1010.1 hPa 0 mm - - -
1777980375 16.11° C 65% 1010.2 hPa 0 mm - - -
1777979835 16.11° C 66% 1010 hPa 0 mm - - -
1777979294 16.11° C 64% 1010 hPa 0 mm - - -
1777978755 16.67° C 64% 1010.2 hPa 0 mm - - -
1777978214 16.67° C 65% 1010.1 hPa 0 mm - - -
1777977675 16.67° C 66% 1010.2 hPa 0 mm - - -
1777977134 16.11° C 65% 1010.2 hPa 0 mm - - -
1777976595 16.11° C 66% 1010.1 hPa 0 mm - - -
1777976055 16.11° C 64% 1010.1 hPa 0 mm - - -
1777975514 16.11° C 65% 1010.1 hPa 0 mm - - -
1777974974 16.11° C 65% 1010.1 hPa 0 mm - - -
1777974434 16.11° C 68% 1010 hPa 0 mm - - -
1777973894 15.56° C 69% 1010 hPa 0 mm - - -
1777973354 15° C 70% 1009.8 hPa 0.25 mm - - -
1777972815 15° C 70% 1009.8 hPa 0.25 mm - - -
1777972274 15.56° C 71% 1009.8 hPa 0.25 mm - - -
1777971735 15.56° C 71% 1009.9 hPa 0.25 mm - - -
1777971193 15.56° C 73% 1009.9 hPa 0.25 mm - - -
1777970654 15° C 75% 1009.8 hPa 0.51 mm - - -
1777970113 15° C 78% 1009.8 hPa 1.27 mm - - -
1777969574 14.44° C 80% 1010 hPa 1.78 mm - - -

* Rain latest hour (hover to see other rain measurements)
** Current wind speed in m/s (hover to see current wind gust speed)